Regional Weather Roundup
Issued by NWS

Home | Current Version | Previous Version | Graphics & Text | Print | Product List | Glossary On
Versions: 1 2 3 4 5 6 7 8 9 10 11 12 13 14 15 16 17 18 19 20 21 22 23 24 25 26 27 28 29 30 31 32 33 34 35 36 37 38 39 40 41 42 43 44 45 46 47 48 49 50
042
ASUS43 KFSD 171310
RWRSD

WEATHER ROUNDUP FOR SOUTH DAKOTA
NATIONAL WEATHER SERVICE SIOUX FALLS SD
800 AM CDT THU AUG 17 2017

NOTE: "FAIR" INDICATES FEW OR NO CLOUDS BELOW 12,000 FEET WITH NO
SIGNIFICANT WEATHER AND/OR OBSTRUCTIONS TO VISIBILITY.


SDZ001>005-009-010-012>017-171400-
NORTHWEST AND NORTH CENTRAL SOUTH DAKOTA

CITY           SKY/WX    TMP DP  RH WIND       PRES   REMARKS
BUFFALO          N/A     53  48  83 SW5       29.85S
FAITH            N/A     58  50  75 S14       29.92S
MOBRIDGE       SUNNY     57  55  93 CALM      29.90R FOG
$$

SDZ012>016-024>037-041>051-057-063-072>074-171400-
SOUTHWEST AND SOUTH CENTRAL SOUTH DAKOTA

CITY           SKY/WX    TMP DP  RH WIND       PRES   REMARKS
RAPID CTY ARPT CLEAR     55  51  86 CALM      29.95R
PIERRE         SUNNY     55  50  83 CALM      29.93R
CUSTER         CLOUDY    57  42  57 W6        30.09S
ELLSWORTH AFB  CLEAR     55  52  88 W3        29.93S
PHILIP         SUNNY     53  51  93 CALM      29.95R
PINE RIDGE     SUNNY     57  51  80 W3        30.00R
SPEARFISH      FAIR      66  43  42 N6G13     29.96R
WINNER         FAIR      60  50  69 SW7       29.96S
$$

SDZ004>011-016>023-039-040-171400-
NORTHEAST SOUTH DAKOTA

CITY           SKY/WX    TMP DP  RH WIND       PRES   REMARKS
ABERDEEN       SUNNY     60  56  86 NW9       29.88R
WATERTOWN      CLOUDY    62  60  93 NW21      29.83R
BROOKINGS      CLOUDY    62  58  86 NW20      29.84R
SISSETON         N/A     63  60  90 NW17      29.80R
$$

SDZ017-020-022-023-036>040-048>070-171400-
SOUTHEAST SOUTH DAKOTA

CITY           SKY/WX    TMP DP  RH WIND       PRES   REMARKS
SIOUX FALLS    MOSUNNY   63  60  90 NW14      29.85R
HURON          SUNNY     58  55  90 NW9       29.89R
CHAMBERLAIN    SUNNY     58  56  95 SW5       29.96R
MITCHELL       SUNNY     59  56  89 W9        29.91R
$$

ABBREVIATIONS USED IN REMARKS
   TC - TEMPERATURE IN CELSIUS
  WCI - WIND CHILL INDEX
   HX - HEAT INDEX
  VSB - VISIBILITY





USA.gov is the U.S. government's official web portal to all federal, state and local government web resources and services.